OneWeb SL0652

operational
NORAD ID: 55814 Int'l Des: 2023-029 Owner: ONEWEBN Country: UK Constellation: oneweb
LEOCIRCULARPOLARONEWEB_TYPE

Über OneWeb SL0652

Beschreibung wird geladen...

Live-Position

3D-Globus wird geladen...

Nächste Überflüge

Höhenverlauf

Altitude vs Time

uPlot chart will show altitude changes over time

Zweizeiliger Elementsatz

1 55814U 23029U 26034.20217517 -.00000070 00000-0 -22342-3 0 9994
2 55814 87.9022 316.4325 0001886 77.0458 283.0883 13.14503232141766
Epoch: 3. Feb. 2026 • Age: 9 hours

Aktueller Status

Höhe 1209.7 km
Geschwindigkeit 7.25 km/s
Subsatellitenpunkt 36.89°N, 28.44°W
Startdatum 9. März 2023
Alter 2.9 years
Typ internet

Technische Details

Klassifizierung Payload
Masse 148.00 kg
Trockenmasse 140.00 kg
Gesamtmasse 148.00 kg
Länge 1.30 m
Durchmesser 1.00 m
Spannweite 5.00 m
Form Trapezoid+2 pan
Hersteller ONEWUS
Bus-Typ ARROW
Phasenstatus In Orbit
Besitzer/Staat ONEWEBN/UK

Große Konstellationen

Loading constellations...